IW1CGW-23 Weather Reports


time (UTC)temp
C
wind
direction
speed
KPH
gust
KPH
rain 1hr
cm
rain 24hr
cm
rain mn
cm
humidity
%
barometer
mb
20260506215425 13 0.0 0.0 0.00 0.00 0.00 84 1011.1
20260506212822 13 0.0 0.0 0.00 0.00 0.00 83 1011.2
20260506204918 15 0.0 0.0 0.00 0.00 0.00 82 1011.1
20260506202314 16 0.0 0.0 0.00 0.00 0.00 81 1010.8
20260506195711 16 0.0 0.0 0.00 0.00 0.00 80 1010.6
20260506194409 16 0.0 0.0 0.00 0.00 0.00 80 1010.6
20260506191804 16 0.0 0.0 0.00 0.00 0.00 79 1010.0
20260506185200 16 0.0 0.0 0.00 0.00 0.00 78 1009.6
20260506181253 17 0.0 0.0 0.00 0.00 0.00 76 1009.3
20260506175950 17 0.0 0.0 0.00 0.00 0.00 76 1009.3
20260506174648 17 0.0 0.0 0.00 0.00 0.00 76 1009.3
20260506173345 17 0.0 0.0 0.00 0.00 0.00 75 1009.1
20260506170738 17 0.0 0.0 0.00 0.00 0.00 75 1009.1
20260506164137 18 0.0 0.0 0.00 0.00 0.00 74 1009.2
20260506162830 18 0.0 0.0 0.00 0.00 0.00 74 1009.2
20260506153620 18 0.0 0.0 0.00 0.00 0.00 72 1009.1
20260506151007 19 0.0 0.0 0.00 0.00 0.00 73 1009.2
20260506144359 19 0.0 0.0 0.00 0.00 0.00 73 1009.3
20260506143056 19 0.0 0.0 0.00 0.00 0.00 74 1009.3
20260506141752 19 0.0 0.0 0.00 0.00 0.00 74 1009.4
20260506132540 19 0.0 0.0 0.00 0.00 0.00 74 1009.7
20260506123321 18 0.0 0.0 0.00 0.00 0.00 74 1010.0
20260506115410 18 0.0 0.0 0.00 0.00 0.00 73 1010.0
20260506112804 19 0.0 0.0 0.00 0.00 0.00 71 1010.0
20260506110148 21 0.0 0.0 0.00 0.00 0.00 69 1010.1
20260506104842 21 0.0 0.0 0.00 0.00 0.00 69 1010.0
20260506103535 21 0.0 0.0 0.00 0.00 0.00 68 1010.0
20260506102234 22 0.0 0.0 0.00 0.00 0.00 68 1009.9
20260506100921 22 0.0 0.0 0.00 0.00 0.00 68 1009.9
20260506095615 22 0.0 0.0 0.00 0.00 0.00 69 1009.7
20260506094313 22 0.0 0.0 0.00 0.00 0.00 69 1009.6
20260506091655 22 0.0 0.0 0.00 0.00 0.00 70 1009.8
20260506085046 23 0.0 0.0 0.00 0.00 0.00 70 1009.5
20260506071855 21 0.0 0.0 0.00 0.00 0.00 78 1009.3
20260506070548 22 0.0 0.0 0.00 0.00 0.00 77 1009.4
20260506044205 12 0.0 0.0 0.00 0.00 0.00 93 1008.7
20260506041604 12 0.0 0.0 0.00 0.00 0.00 92 1008.6
20260506040302 13 0.0 0.0 0.00 0.00 0.00 91 1008.9
20260506033700 13 0.0 0.0 0.00 0.00 0.00 91 1009.6
20260506032359 13 0.0 0.0 0.00 0.00 0.00 91 1009.1
20260506031104 12 0.0 0.0 0.00 0.00 0.00 91 1008.9
20260506025803 12 0.0 0.0 0.00 0.00 0.00 91 1008.7
20260506024517 12 0.0 0.0 0.00 0.00 0.00 91 1009.1
20260506023156 13 0.0 0.0 0.00 0.00 0.00 91 1009.3
20260506015253 13 0.0 0.0 0.00 0.00 0.00 91 1009.8
20260506011350 13 0.0 0.0 0.00 0.00 0.00 91 1010.0
20260506010049 13 0.0 0.0 0.00 0.00 0.00 92 1010.0
20260506003448 13 0.0 0.0 0.00 0.00 0.00 93 1009.8
20260506002147 13 0.0 0.0 0.00 0.00 0.00 93 1010.4
20260506000908 13 0.0 0.0 0.00 0.00 0.00 93 1010.5
20260505235545 13 0.0 0.0 0.00 0.00 0.00 92 1011.0
20260505232942 13 0.0 0.0 0.00 0.00 0.00 91 1011.8
20260505231640 13 0.0 0.0 0.00 0.00 0.00 91 1012.0
20260505230339 13 0.0 0.0 0.00 0.00 0.00 91 1012.0
20260505223742 13 0.0 0.0 0.00 0.00 0.00 90 1011.3
20260505222435 13 0.0 0.0 0.00 0.00 0.00 90 1011.5
20260505221134 13 0.0 0.0 0.00 0.00 0.00 90 1011.9
20260505215833 13 0.0 0.0 0.00 0.00 0.00 90 1012.1